Regional Weather Roundup
Issued by NWS Sioux Falls, SD

Home | Current Version | Previous Version | Text Only | Print | Product List | Glossary On
Versions: 1 2 3 4 5 6 7 8 9 10 11 12 13 14 15 16 17 18 19 20 21 22 23 24 25 26 27 28 29 30 31 32 33 34 35 36 37 38 39 40 41 42 43 44 45 46 47 48 49 50
000
ASUS43 KFSD 151702
RWRFSD

WEATHER ROUNDUP FOR SE SOUTH DAKOTA/SW MINNESOTA/NW IOWA
NATIONAL WEATHER SERVICE SIOUX FALLS SD
1200 PM CDT MON SEP 15 2014

NOTE: "FAIR" INDICATES FEW OR NO CLOUDS BELOW 12,000 FEET WITH NO
SIGNIFICANT WEATHER AND OR OBSTRUCTIONS TO VISIBILITY.


SDZ038>040-050-052>070-151800-
SOUTHEAST SOUTH DAKOTA

CITY           SKY/WX    TMP DP  RH WIND       PRES   REMARKS
CHAMBERLAIN    SUNNY     57  37  47 CALM      30.31S
HURON          SUNNY     60  37  42 N14       30.28F
MADISON        FAIR      54  41  62 N10G16    30.28R
MITCHELL       SUNNY     59  38  45 NW10      30.30S
SIOUX FALLS    PTSUNNY   58  45  62 NE12      30.27R
WINNER         FAIR      59  34  39 VRB5      30.32S
YANKTON        MOSUNNY   59  43  55 N15       30.28S
$$

MNZ071-072-080-081-089-090-097-098-151800-
SOUTHWEST MINNESOTA

CITY           SKY/WX    TMP DP  RH WIND       PRES   REMARKS
FAIRMONT       PTSUNNY   59  45  58 NW9       30.23S
JACKSON        PTSUNNY   57  43  58 N13G18    30.24S
LUVERNE        PTSUNNY   59  43  55 N8        30.27R
MARSHALL       PTSUNNY   57  37  47 N13       30.25S
MONTEVIDEO     PTSUNNY   59  43  55 N8        30.27R
PIPESTONE      PTSUNNY   57  39  51 NE9G18    30.26R
REDWOOD FALLS  PTSUNNY   58  42  55 N9        30.24S
TRACY          PTSUNNY   57  44  59 N8        30.26S
WINDOM         MOSUNNY   57  45  62 N15       30.24S
WORTHINGTON    PTSUNNY   55  41  58 N13       30.26S
$$

IAZ001>003-012>014-020>022-031-032-NEZ013-014-SDZ071-151800-
NORTHWEST IOWA

CITY           SKY/WX    TMP DP  RH WIND       PRES   REMARKS
CHEROKEE       PTSUNNY   56  48  74 N8G17     30.24S
DENISON        CLOUDY    57  48  72 N16       30.20R
ESTHERVILLE    PTSUNNY   56  46  69 N13       30.23S
LE MARS        PTSUNNY   57  46  67 N12       30.26S
ORANGE CITY    PTSUNNY   57  46  67 N8        30.25S
SHELDON        PTSUNNY   55  45  67 N9G15     30.24S
SIOUX CITY     CLOUDY    58  46  64 N13G22    30.26R
SPENCER        CLOUDY    56  45  66 N13       30.24S
STORM LAKE       N/A     54  50  87 N14       30.23R
$$

ABBREVIATIONS USED IN REMARKS
   TC - TEMPERATURE IN CELSIUS
  WCI - WIND CHILL INDEX
   HX - HEAT INDEX
  VSB - VISIBILITY



USA.gov is the U.S. government's official web portal to all federal, state and local government web resources and services.